www.pogodaiklimat.ru
ПОГОДА на Влиланде
Время
(UTC), дата
13 11.01
14 11.01
15 11.01
16 11.01
17 11.01
18 11.01
19 11.01
20 11.01
21 11.01
22 11.01
23 11.01
00 12.01
01 12.01
02 12.01
03 12.01
04 12.01
05 12.01
06 12.01
07 12.01
08 12.01
09 12.01
10 12.01
11 12.01
12 12.01
13 12.01
14 12.01
15 12.01
16 12.01
17 12.01
18 12.01
19 12.01
20 12.01
21 12.01
22 12.01
23 12.01
00 13.01
01 13.01
02 13.01
03 13.01
04 13.01
05 13.01
06 13.01
07 13.01
08 13.01
09 13.01
10 13.01
11 13.01
12 13.01
13 13.01
14 13.01
15 13.01
16 13.01
17 13.01
18 13.01
19 13.01
20 13.01
21 13.01
22 13.01
23 13.01
00 14.01
01 14.01
02 14.01
03 14.01
04 14.01
05 14.01
06 14.01
07 14.01
08 14.01
09 14.01
10 14.01
11 14.01
12 14.01
13 14.01
14 14.01
15 14.01
16 14.01
17 14.01
18 14.01
19 14.01
20 14.01
21 14.01
22 14.01
23 14.01
00 15.01
01 15.01
02 15.01
03 15.01
04 15.01
05 15.01
06 15.01
07 15.01
08 15.01
09 15.01
10 15.01
11 15.01
12 15.01
13 15.01
14 15.01
15 15.01
16 15.01
17 15.01
18 15.01
19 15.01
20 15.01
21 15.01
22 15.01
23 15.01
00 16.01
01 16.01
02 16.01
03 16.01
04 16.01
05 16.01
06 16.01
07 16.01
08 16.01
09 16.01
10 16.01
11 16.01
12 16.01
13 16.01
14 16.01
15 16.01
16 16.01
17 16.01
18 16.01
19 16.01
20 16.01
21 16.01
22 16.01
23 16.01
00 17.01
01 17.01
02 17.01
03 17.01
04 17.01
05 17.01
06 17.01
07 17.01
08 17.01
09 17.01
10 17.01
11 17.01
12 17.01
13 17.01
14 17.01
15 17.01
16 17.01
17 17.01
18 17.01
19 17.01
20 17.01
21 17.01
22 17.01
23 17.01
00 18.01
01 18.01
02 18.01
03 18.01
04 18.01
05 18.01
06 18.01
07 18.01
08 18.01
09 18.01
10 18.01
11 18.01
12 18.01
13 18.01
Ветер
(напр.,м/с)
Видим. Явления Облачность Т
(С)
Тd
(С)
f
(%)
Тe
(С)
Тes
(С)
Комфортность P
(гПа)
Po
(гПа)
Тmin
(С)
Tmax
(С)
R
(мм)
R24
(мм)
S
(см)
З 14-17
{17}
8000 м дымка 10/10 600 м +6.7 +3.8 82 0 0 1011.2 1010.0
З 13-16
{17}
7000 м дымка 10/10 600 м +6.7 +4.0 83 0 0 1010.2 1009.0
З 14-17
{17}
8000 м дымка 10 баллов +6.9 +4.2 83 0 0 1009.8 1008.6
З 14-17
{18}
7000 м дымка 10/10 300 м +6.8 +4.3 84 0 0 1008.9 1007.6
ЮЗ 14-17
{18}
5000 м слаб. ливневой дождь {морось} 10/10 300 м +6.3 +5.0 91 -1 -1 1008.2 1006.9
ЮЗ 15-18
{18}
6000 м морось {ливн. дождь, дымка} 10 баллов +6.6 +5.3 91 -0 -0 1007.2 1006.0 +7.0
З 15-17
{18}
5000 м морось {ливн. дождь, дождь} 10/10 300 м +6.8 +5.6 92 -0 -0 1006.9 1005.7
З 14-17
{17}
6000 м слаб. морось {дождь} 10/10 300 м +7.4 +5.6 88 +1 +1 1006.3 1005.0
З 14-16
{18}
6000 м морось с дождем {ливн. дождь} 10 баллов +7.4 +5.7 89 +1 +1 1005.4 1004.2
З 13-16
{17}
5000 м морось с дождем {ливн. дождь} 10/6 300 м +7.3 +6.3 93 +1 +1 1004.9 1003.6
З 13-16
{17}
7000 м в посл. час дождь {ливн. дождь, морось} 10/10 300 м +7.5 +6.3 92 +1 +1 1004.4 1003.1
З 12-15
{18}
5000 м сильн. морось {ливн. дождь, дождь} 10 баллов +7.4 +6.5 94 +1 +1 1003.8 1002.5
З 12-14
{15}
4400 м дождь {морось} 10/10 300 м +7.4 +6.8 96 +1 +1 1002.9 1001.7
З 11-13
{14}
4600 м сильн. морось {дождь} 10/6 1000 м +7.3 +6.8 97 +1 +1 1002.5 1001.2
З 11-13
{15}
4700 м морось {дождь} 10 баллов +7.3 +6.7 96 +1 +1 1002.1 1000.8
С 6-7
{13}
4900 м слаб. дождь {морось} 10/6 600 м +6.0 +5.5 97 +1 +1 1002.3 1001.0
С 7-9
{9}
7000 м морось с дождем 10/8 300 м +5.7 +4.7 93 0 0 1002.7 1001.3
СЗ 8-10
{15}
10 км в посл. час дождь {ливн. дождь} 10 баллов +5.7 +4.2 90 0 0 1003.1 1001.7 +5.2
С 8-9
{12}
10 км в посл. час морось 10/6 300 м +5.6 +3.6 87 -0 -0 1003.9 1002.6
С 9-10
{13}
12 км в посл. час дождь {ливн. дождь} 8/8 1000 м +5.3 +1.9 79 -1 -1 1005.1 1003.7
СЗ 10-13
{13}
18 км {ливн. дождь, морось} 3 балла +5.6 -0.2 66 -0 -0 1006.3 1004.8
СЗ 11-15
{15}
15 км в посл. час осадки {ливн. дождь, морось} 4/4 1000 м +6.0 +1.6 73 -0 -0 1006.9 1005.4
СЗ 11-14
{14}
15 км {ливн. дождь, морось} 4/4 1000 м +6.6 +1.9 72 +1 +1 1007.3 1006.0
СЗ 12-14
{19}
12 км в посл. час дождь {ливн. дождь, морось} 1 балл +5.4 +2.0 79 -1 -1 1007.6 1006.3
СЗ 10-13
{15}
12 км в посл. час дождь {ливн. дождь} 5/4 600 м +5.5 +2.5 81 -1 -1 1008.1 1006.6
С 11-14
{14}
14 км {ливн. дождь} 4/4 1000 м +6.2 +0.7 68 0 0 1008.7 1007.4
С 11-13
{15}
15 км {ливн. дождь} 1 балл +5.8 0.0 66 -0 -0 1009.9 1008.5
СЗ 11-13
{17}
13 км {ливн. дождь} 4/4 600 м +5.8 +0.1 67 -0 -0 1010.9 1009.6
СЗ 11-14
{14}
12 км {ливн. дождь} 1/1 600 м +5.8 +0.7 70 -0 -0 1011.5 1010.2
СЗ 12-15
{17}
12 км {ливн. дождь} 4 балла +5.9 +0.6 69 -0 -0 1012.2 1010.8 +6.8
СЗ 12-13
{15}
11 км 1/1 600 м +5.8 +0.4 68 -1 -1 1012.8 1011.5
СЗ 11-13
{13}
13 км 1/1 600 м +5.8 +0.1 67 -0 -0 1013.5 1012.2
СЗ 11-13
{15}
12 км 1 балл +5.8 +0.2 67 -0 -0 1013.7 1012.4
СЗ 12-14
{14}
12 км 3/3 600 м +5.9 +0.2 67 -0 -0 1014.0 1012.7
СЗ 10-13
{18}
10 км в посл. час морось 5/4 1000 м +5.6 +1.7 76 -1 -1 1014.4 1013.1
СЗ 10-14
{18}
11 км слаб. ливневой дождь {морось} 4 балла +5.3 +1.0 74 -1 -1 1014.2 1013.0
З 11-14
{16}
10 км в посл. час дождь 3/1 600 м +5.6 +1.6 75 -1 -1 1014.0 1012.7
З 14-19
{19}
12 км 10/8 1000 м +5.3 +1.0 74 -2 -2 1014.1 1012.7
СЗ 14-18
{19}
5000 м слаб. ливневой дождь 10 баллов +4.1 +1.2 81 -4 -4 1014.1 1012.9
З 13-15
{19}
11 км в посл. час дождь 10/10 +5.0 +2.2 82 -2 -2 1014.0 1012.8
З 13-16
{18}
10 км {ливн. дождь} 10/9 1500 м +5.4 +2.2 80 -2 -2 1013.7 1012.5
З 13-18
{19}
10 км в посл. час дождь {ливн. дождь, морось} 10 баллов +5.1 +1.3 76 -2 -2 1013.4 1012.2 +3.6
СЗ 14-17
{17}
11 км в посл. час морось {дымка} 9/8 1000 м +5.6 +1.4 74 -1 -1 1013.4 1012.1
СЗ 12-15
{16}
10 км {морось, дымка} 6/6 1000 м +5.9 +1.7 74 -1 -1 1013.3 1012.0
З 11-15
{18}
9000 м ливневой дождь {морось} 9 баллов +5.9 +2.6 79 -0 -0 1013.3 1012.0
СЗ 12-17
{17}
8000 м слаб. ливневой дождь 8/6 1000 м +5.6 +3.2 85 -1 -1 1013.5 1012.1
СЗ 12-14
{16}
10 км слаб. ливневой дождь 8/8 1500 м +5.5 +3.0 84 -1 -1 1013.3 1012.0
З 12-14
{18}
10 км в посл. час дождь {ливн. дождь} 3 балла +6.0 +3.1 82 -1 -1 1012.9 1011.7
СЗ 12-14
{16}
11 км 3/1 600 м +6.1 +1.9 74 -0 -0 1012.5 1011.2
СЗ 12-15
{15}
11 км 6/6 1000 м +6.2 +2.0 74 -0 -0 1012.7 1011.3
СЗ 13-15
{16}
9000 м дым 6 баллов +5.9 +2.4 78 -1 -1 1012.7 1011.2
СЗ 13-15
{17}
10 км 10/6 600 м +6.2 +2.2 76 -0 -0 1012.4 1011.1
СЗ 12-14
{23}
7000 м в посл. час дождь {ливн. дождь} 10/8 600 м +5.3 +3.6 89 -2 -2 1012.6 1011.3
С 11-13
{23}
7000 м слаб. ливневой дождь 10 баллов +4.8 +2.7 86 -2 -2 1013.3 1011.9 +6.7
С 9-11
{12}
9000 м в посл. час дождь {ливн. дождь} 10/6 1000 м +4.8 +1.1 77 -1 -1 1013.9 1012.5
С 10-11
{12}
13 км {ливн. дождь} 10/10 1000 м +4.5 -1.2 66 -2 -2 1014.9 1013.5
С 8-10
{13}
14 км {ливн. дождь} 10 баллов +4.2 -2.1 64 -2 -2 1015.7 1014.3
-9
{10}
17 км {ливн. дождь} 10/10 +4.3 -2.8 60 1016.2 1014.9
С 9-10
{10}
17 км {ливн. дождь} 10/10 +4.0 -3.1 60 -2 -2 1017.1 1015.7
С 7-9
{13}
14 км {ливн. дождь} 10 баллов +3.7 -2.8 62 -2 -2 1017.6 1016.3
С 7-10
{10}
15 км 10/10 +3.5 -0.6 75 -2 -2 1017.5 1016.2
СВ 6-8
{12}
21 км в посл. час морось 10/10 +3.4 -1.0 73 -2 -2 1018.0 1016.7
СВ 5-6
{12}
19 км 10 баллов +3.4 -0.5 76 -2 -2 1018.5 1017.2
В 4-5
{7}
30 км в посл. час морось 10/10 1000 м +2.8 -0.6 78 -2 -2 1018.9 1017.6
В 4-4
{4}
29 км 10/10 +0.5 -1.1 89 -5 -5 1019.0 1017.7
В 4-6
{12}
29 км в посл. час морось 6 баллов +2.1 -0.5 83 -3 -3 1019.3 1017.9 -0.1
В 4-5
{6}
35 км 9/9 +1.8 -0.9 82 -3 -3 1019.7 1018.3
В 5-5
{6}
35 км 10/10 +1.5 -1.0 83 -4 -4 1020.2 1018.8
В 6-8
{8}
45 км 10 баллов +2.8 -1.3 74 -3 -3 1020.5 1019.2
В 6-7
{8}
40 км 10/10 1000 м +3.9 -1.5 68 -1 -1 1021.0 1019.6
В 6-7
{8}
40 км 10/10 1000 м +3.2 -1.5 71 -2 -2 1021.2 1019.9
В 6-8
{8}
40 км 9 баллов +3.3 -1.8 69 -2 -2 1021.2 1019.9
В 7-9
{9}
40 км 5/5 +3.5 -2.2 66 -2 -2 1021.0 1019.7
В 8-9
{9}
45 км 9/9 +3.1 -1.9 70 -3 -3 1020.6 1019.3
В 8-9
{9}
45 км 5 баллов +1.9 -1.8 76 -5 -5 1020.8 1019.5
В 6-7
{9}
35 км 10/10 +1.2 -1.3 83 -5 -5 1021.4 1020.1
В 7-8
{8}
30 км 10/10 +1.0 -1.0 86 -6 -6 1022.1 1020.7
В 8-10
{10}
35 км 10 баллов +1.3 -1.0 85 -6 -6 1022.4 1021.0 +4.2
В 9-10
{11}
45 км 10/10 600 м +1.2 -1.8 80 -6 -6 1022.9 1021.5
В 7-9
{10}
45 км 10/10 600 м +1.2 -1.8 80 -5 -5 1023.5 1022.1
В 7-8
{11}
45 км 10 баллов +1.3 -2.6 75 -5 -5 1024.2 1022.8
В 4-6
{8}
45 км 10/10 600 м +1.4 -3.6 69 -3 -3 1024.8 1023.5
В 4-5
{7}
45 км 10/10 600 м +1.3 -3.2 72 -4 -4 1025.2 1023.8
В 4-6
{11}
45 км 10 баллов +1.3 -3.0 73 -4 -4 1025.4 1024.1
В 2-3
{5}
45 км 10/10 600 м +1.4 -2.3 76 -2 -2 1025.5 1024.2
В 1-1
{3}
45 км 10/10 600 м +1.2 -1.6 82 -1 -1 1026.2 1024.9
штиль 0
{6}
45 км 10 баллов +1.0 -1.7 82 0 0 1026.3 1025.0
З 1-2
{2}
45 км 10/10 1000 м +1.0 -1.9 81 -1 -1 1026.7 1025.4
ЮЗ 3-3
{3}
45 км 10/10 1000 м +1.3 -1.6 81 -3 -3 1026.8 1025.4
СВ 2-5
{6}
45 км ливневой дождь 10 баллов +2.3 -2.1 73 -1 -1 1027.0 1025.7 +0.9
С 6-7
{7}
45 км в посл. час дождь {ливн. дождь} 10/10 1000 м +3.3 -3.3 62 -2 -2 1027.6 1026.2
СВ 2-5
{7}
45 км {ливн. дождь} 10/10 1000 м +3.2 -2.2 68 +1 +1 1028.0 1026.7
СВ 4-6
{7}
45 км {ливн. дождь} 10 баллов +2.7 -0.6 79 -2 -2 1028.6 1027.2
В 2-2
{5}
45 км {ливн. дождь} 10/10 1000 м +2.7 -1.0 77 -0 -0 1029.4 1028.0
Ю 1-1
{3}
35 км слаб. ливневой дождь 10/10 1000 м +2.9 +0.3 83 +1 +1 1029.7 1028.5
З 2-2
{7}
45 км в посл. час дождь 10 баллов +3.2 +0.3 81 0 0 1029.6 1028.3
В 4-4
{4}
45 км 10/8 600 м +2.0 +0.4 89 -3 -3 1029.5 1028.2
ЮВ 3-3
{4}
45 км 10/10 1000 м +2.4 0.0 84 -2 -2 1029.6 1028.3
Ю 1-1
{4}
45 км в посл. час морось 10 баллов +2.4 +0.2 85 +1 +1 1029.6 1028.3
ЮЗ 3-3
{3}
45 км 10/10 1000 м +2.2 +0.5 89 -2 -2 1029.6 1028.3
З 3-4
{4}
45 км 10/10 1000 м +2.9 +0.7 85 -1 -1 1029.4 1028.2
СВ 2-3
{7}
8000 м слаб. ливневой дождь {морось} 10 баллов +1.6 +0.8 94 -2 -2 1029.8 1028.5 +3.5
Ю 2-3
{3}
45 км в посл. час дождь {морось} 10/10 1000 м +1.3 +0.2 92 -2 -2 1029.7 1028.3
Ю 2-2
{2}
45 км 10/10 1000 м +1.4 +0.7 95 -2 -2 1029.8 1028.5
Ю 2-2
{3}
45 км 10 баллов +1.7 +0.6 92 -2 -2 1029.9 1028.6
ЮВ 2-2
{3}
45 км 10/10 1000 м +1.7 +0.6 92 -2 -2 1029.7 1028.5
Ю 2-2
{3}
45 км 10/10 1000 м +1.8 +0.5 91 -2 -2 1029.5 1028.2
ЮВ 2-2
{3}
45 км 10 баллов +1.4 -0.2 89 -2 -2 1029.1 1027.8
Ю 3-3
{3}
45 км 10/10 1000 м +1.9 +0.3 89 -2 -2 1028.5 1027.2
Ю 2-3
{4}
24 км 10/10 1000 м +2.1 +0.9 92 -1 -1 1028.3 1027.0
Ю 3-4
{4}
40 км 10 баллов +2.0 +0.7 91 -2 -2 1027.7 1026.4
Ю 2-3
{7}
45 км 10/10 600 м +2.3 -0.2 84 -1 -1 1027.0 1025.8
Ю 3-3
{3}
17 км 10/10 1000 м +2.3 +1.0 91 -2 -2 1026.2 1025.0
ЮВ 5-6
{7}
30 км 10 баллов +2.4 +0.9 90 -3 -3 1025.2 1024.0 +1.3
Ю 5-7
{7}
25 км 10/10 1000 м +2.4 +1.1 91 -3 -3 1024.7 1023.4
Ю 6-8
{8}
20 км 10/10 1000 м +2.6 +1.0 89 -3 -3 1024.0 1022.7
Ю 8-11
{11}
22 км 10 баллов +3.2 +1.1 86 -3 -3 1023.1 1021.8
Ю 9-12
{12}
40 км 10/10 600 м +3.6 -0.4 75 -3 -3 1022.9 1021.6
Ю 10-12
{13}
35 км 10/10 1000 м +3.4 -0.8 74 -3 -3 1022.1 1020.9
Ю 10-12
{13}
30 км 10 баллов +3.1 -1.5 72 -4 -4 1021.1 1019.8
Ю 10-12
{13}
30 км 10/10 1500 м +2.6 -1.9 72 -4 -4 1019.6 1018.4
Ю 9-12
{14}
3400 м ливневой снег {дождь, морось} 9/8 600 м +0.4 -1.6 86 -7 -7 1018.7 1017.5
Ю 10-13
{14}
1000 м снег {ливн. снег, морось} 10 баллов -0.5 -0.9 97 -9 -9 1018.0 1016.7
Ю 9-12
{13}
2900 м слаб. снег {морось} 10/6 300 м -0.6 -0.7 99 -9 -9 1017.1 1015.9
Ю 9-12
{13}
2700 м слаб. дождь со снегом {морось} 10/6 200 м -0.6 -0.8 99 -9 -9 1016.4 1015.1
Ю 10-13
{14}
5000 м слаб. переохл. морось (гололёд) 10 баллов -0.5 -0.6 99 -9 -9 1016.0 1014.8 +3.7
Ю 10-12
{13}
6000 м слаб. переохл. морось (гололёд) {дождь} 10/9 200 м -0.3 -0.5 99 -9 -9 1015.5 1014.3
Ю 9-12
{12}
6000 м в посл. час снег {ливн. снег, морось} 10/10 200 м -0.1 -0.4 98 -8 -8 1015.2 1013.9
Ю 8-11
{13}
4600 м дымка {ливн. снег} 10 баллов +0.1 -0.3 97 -8 -8 1014.6 1013.4
Ю 9-11
{12}
3500 м дымка {ливн. снег} 10/10 100 м +0.6 +0.4 99 -7 -7 1014.3 1013.0
Ю 8-10
{12}
2800 м дымка {ливн. снег} 10/10 100 м +0.8 +0.4 97 -7 -7 1014.0 1012.7
Ю 8-10
{13}
2900 м дымка {ливн. снег} 10 баллов +1.0 +0.6 97 -6 -6 1013.4 1012.1
Ю 8-10
{10}
1500 м в посл. час морось {дымка} 10/10 50 м +1.1 +0.8 98 -6 -6 1013.1 1011.8
Ю 7-8
{10}
1600 м слаб. ливневой дождь {морось} 10/10 50 м +1.3 +1.0 98 -6 -6 1012.7 1011.5
Ю 5-6
{10}
1300 м морось с дождем {ливн. снег} 10 баллов +1.9 +1.7 99 -4 -4 1012.7 1011.4
СЗ 7-8
{8}
6000 м в посл. час дождь {ливн. дождь, морось} 10/10 300 м +5.4 +4.9 97 -0 -0 1012.9 1011.6
СЗ 6-7
{9}
8000 м дымка {ливн. дождь} 10/8 600 м +6.0 +5.0 93 +1 +1 1013.2 1011.8
СЗ 7-9
{10}
8000 м дымка {ливн. дождь} 10 баллов +5.9 +4.7 92 +1 +1 1013.5 1012.2 -0.5
СЗ 6-8
{8}
7000 м дымка 10/10 +5.8 +4.7 93 +1 +1 1014.0 1012.6
СЗ 6-7
{8}
7000 м дымка 10/10 +5.8 +4.6 92 +1 +1 1014.9 1013.6
СЗ 7-8
{9}
8000 м дымка 10 баллов +6.4 +5.2 92 +1 +1 1015.7 1014.4
СЗ 7-9
{9}
12 км 10/6 600 м +6.5 +4.6 88 +1 +2 1016.7 1015.3
СЗ 8-10
{10}
11 км слаб. ливневой дождь {морось} 10/9 600 м +6.2 +3.7 84 +1 +1 1017.3 1015.9
СЗ 5-6
{10}
9000 м в посл. час дождь {ливн. дождь} 10 баллов +6.3 +4.8 90 +2 +2 1017.7 1016.3
СЗ 7-8
{8}
7000 м дымка 1/1 300 м +7.2 +5.5 89 +2 +3 1018.0 1016.7
СЗ 7-9
{9}
7000 м дымка 6/6 +6.8 +5.3 90 +2 +2 1018.6 1017.3
СЗ 8-9
{10}
7000 м дымка ясно +6.5 +5.1 91 +1 +1 1019.3 1017.9
СЗ 7-8
{9}
7000 м дымка 4/4 +6.0 +4.8 92 +1 +1 1019.9 1018.6
СЗ 6-7
{8}
7000 м дымка 9/9 +5.8 +4.6 92 +1 +1 1020.4 1019.1
СЗ 7-8
{10}
7000 м дымка 10 баллов +5.9 +4.6 91 +1 +1 1021.0 1019.7 +7.4
СЗ 7-8
{8}
9000 м дымка 10/10 +6.0 +4.4 89 +1 +1 1021.1 1019.8
СЗ 7-8
{8}
9000 м дымка 9/9 +5.8 +4.0 88 +1 +1 1021.4 1020.1
З 7-8
{9}
9000 м дымка ясно +5.7 +3.6 86 0 0 1021.3 1020.0
З 7-9
{9}
10 км 4/4 600 м +5.9 +3.7 86 +1 +1 1021.4 1020.0
З 7-8
{9}
11 км 8/8 +5.8 +3.6 86 +1 +1 1021.4 1020.1
З 8-10
{10}
10 км 1 балл +5.6 +3.7 88 -0 -0 1021.1 1019.7
З 7-8
{10}
10 км 10/10 +5.5 +3.5 87 0 0 1020.7 1019.5
З 7-8
{8}
8000 м дымка 10/9 600 м +5.6 +3.7 88 0 0 1020.3 1019.0
З 8-9
{10}
10 км 10 баллов +6.0 +4.0 87 0 0 1019.9 1019.5
З 8-10
{10}
9000 м дымка 9/9 300 м +5.9 +4.2 89 0 0 1019.4 1018.2
З 10-12
{12}
9000 м дымка 10/10 +5.9 +4.3 89 -0 -0 1019.0 1017.8
З 8-10
{12}
9000 м дымка 10 баллов +6.0 +4.4 89 0 0 1018.6 1017.2 +5.3
З 9-11
{11}
9000 м дымка 10/8 1000 м +6.3 +4.3 87 +1 +1 1018.8 1017.4
З 11-13
{13}
9000 м слаб. морось 10/10 600 м +6.3 +4.2 86 0 0 1018.3 1016.9
З 11-13
{14}
9000 м слаб. дождь {морось} 10 баллов +6.1 +4.5 89 -0 -0 1018.1 1016.8
З 11-14
{14}
9000 м в посл. час дождь {морось} 10/10 300 м +6.3 +4.4 88 0 0 1017.9 1016.6
З 13-15
{15}
9000 м дымка {дождь} 10/9 300 м +6.4 +4.3 86 -0 -0 1017.9 1016.6
З 11-13
{15}
9000 м дымка {дождь} 10/10 600 м +6.6 +4.1 84 +1 +1 1017.3 1016.1
З 11-13
{14}
11 км слаб. морось 10/9 600 м +6.6 +4.0 83 +1 +1 1016.8 1015.6
Местоположение метеостанции Влиланд (Нидерланды): широта 53.25 долгота 4.92 высота над уровнем моря 10 м.
В архиве по умолчанию представлена погода на Влиланде за последнюю неделю. Архивные данные за месяц целиком и за предыдущие месяцы, начиная с января 2011 года, Вы можете получить, выбрав интересующий диапазон дат из раскрывающегося списка и нажав кнопку "Найти!".
*Определитесь, кто Вы:
Внимание! Время в таблицах - всемирное. Для получения местного времени необходимо прибавить поправку, которая равна 1 ч.
Смотрите также архив погоды в соседних городах и на ближайших метеорологических станциях:
Партнеры нашего сайта:      
Пояснения к столбцам:
  • Ветер - указаны скорость ветра в м/с - средняя за 10 мин, порывы в срок и между сроками (в фигурных скобках) и направление, откуда дует ветер: С - северный,
  • СВ - северо-восточный, В - восточный, ЮВ - юго-восточный, Ю - южный, ЮЗ - юго-западный, З - западный, СЗ - северо-западный.
  • Видимость - горизонтальная дальность видимости в метрах или километрах. При видимости от 1 до 10 км при отсутствии осадков обычно наблюдается дымка, при ухудшении видимости до 1 км и менее - туман. В сухую погоду видимость может ухудшаться дымом, пылью или мглою.
  • Явления - указаны атмосферные явления, наблюдавшиеся в срок или в последний час перед сроком; фигурными скобками обозначены явления, наблюдавшиеся между сроками (за 1-3 часа до срока); квадратными скобками обозначены град или гололедные отложения с указанием их диаметра в мм.
  • Облачность - указаны через наклонную черту общая и нижняя облачность в баллах и высота нижней границы облаков в метрах; квадратными скобками обозначены формы облаков: Ci - перистые, Cs - перисто-слоистые, Cc - перисто-кучевые, Ac - высококучевые, As - высокослоистые, Sc - слоисто-кучевые, Ns - слоисто-дождевые, Cu - кучевые, Cb - кучево-дождевые. Подробнее классификацию облаков см. в Атласе облаков (PDF).
  • T - Температура воздуха - температура, измеренная на высоте 2 м над землей.
  • Td - Температура точки росы - температура, при понижении до которой содержащийся в воздухе водяной пар достигнет насыщения.
  • f - Относительная влажность воздуха - влажноcть воздуха, измеренная на высоте 2 м над землей.
  • Te - Эффективная температура - температура, которую ощущает одетый по сезону человек в тени. Характеристика душности погоды. При расчете учитывается влияние влажности воздуха и скорости ветра на теплоощущения человека.
  • Tes - Эффективная температура на солнце - температура, которую ощущает человек, с поправкой на солнечный нагрев. Характеристика знойности погоды. Зависит от высоты солнца над горизонтом, облачности и скорости ветра. Ночью, в пасмурную погоду, а также при ветре 12 м/с и более поправка равна нулю.
  • P - Атмосферное давление - приведенное к уровню моря атмосферное давление.
  • Po - Атмосферное давление - измеренное на уровне метеостанции атмосферное давление.
  • Tmin - Минимальная температура - минимум температуры воздуха на высоте 2 м над землей.
  • Tmax - Максимальная температура - максимум температуры воздуха на высоте 2 м над землей.
  • R - Количество осадков - Количество выпавших осадков за период времени, мм. При наведении курсора мыши на число - период времени, за который выпало указанное количество осадков.
  • R24 - Количество осадков - Количество выпавших осадков за 24 часа, мм.
  • S - Снежный покров - Высота снежного покрова, см. При наведении курсора мыши на число - состояние снежного покрова и степень покрытия местности в баллах.